User: anonymous   Login
Location: Feydey
(46.3431°N, 7.0106°E)
Time: 21:54:23
(UTC+00:00)
Language:

deb Kosmos-397 - Orbit

View from above orbital plane
View from above orbital plane
View from above satellite
View from above satellite

Ground track
Ground track

The orbit data is extracted from the following two-line orbital elements,

1 05720U 71015CB  22022.30495215  .00000062  00000-0  83300-4 0  9991
2 05720  66.7290 332.8650 0103556  10.0749 350.2379 14.05702402535528
Epoch (UTC): 22 January 2022 07:19:07
Eccentricity: 0.0103556
inclination: 66.7290°
perigee height: 799 km
apogee height: 949 km
right ascension of ascending node: 332.8650°
argument of perigee: 10.0749°
revolutions per day: 14.05702402
mean anomaly at epoch: 350.2379°
orbit number at epoch: 53552

The dashed part of the orbit path shows where the satellite is in the earth's shadow,  

DLR